Temp
3 3 2 3 4 3 3 3 3 4 4 4 4 4 5 5 6 6 7 8 10 14 16 15 15 17 19 21 24 23 23 25 27 26 28 29 29 30 30 30 29 29 29 29 30 29 28 25 27 27 25 25 24 24
3 3 3 3 4 4 4 4 4 4 4 4 4 4 5 5 6 6 8 8 8 10 13 13 13 13 13 14 17 21 23 24 24 26 28 29 28 28 28 28 29 27 28 27 27 25 24 24 24 23 23 23 23 23
4 3 3 4 4 4 4 4 4 4 4 4 4 5 5 5 6 6 7 8 9 12 14 15 15 14 15 15 15 19 20 20 21 19 25 26 25 26 27 27 27 26 25 27 27 25 24 23 22 21 22 21 21 22
4 4 4 4 4 4 4 5 5 5 5 5 5 5 5 5 6 7 7 8 9 12 14 15 14 14 15 15 15 17 18 18 19 21 24 25 25 24 26 25 26 25 25 25 26 24 23 23 21 20 21 20 20 20
4 4 4 4 4 5 5 5 5 5 5 5 5 5 5 6 6 7 8 8 8 8 10 15 15 15 15 14 15 16 18 19 20 22 23 24 22 23 23 24 25 23 22 23 22 20 20 20 20 20 20 19 19 19
4 5 5 5 5 4 5 5 5 5 5 5 5 5 6 6 6 6 7 9 7 8 9 12 13 14 14 14 14 14 16 18 20 21 21 20 19 21 23 23 21 20 18 18 19 18 18 19 20 19 18 18 18 18
5 5 5 5 5 5 5 5 5 6 6 6 6 6 6 6 7 7 7 8 9 9 11 13 14 13 14 15 15 15 15 16 19 19 19 20 20 19 22 21 19 18 17 17 17 16 17 18 18 18 18 18 18 18
4 5 5 5 5 5 5 5 6 6 6 6 6 6 7 7 8 8 7 9 10 10 12 13 14 15 13 16 15 15 15 16 16 17 18 19 19 20 19 17 17 16 15 16 16 15 16 16 16 17 16 17 17 17
5 5 5 5 5 5 5 6 6 7 7 7 7 7 7 8 8 9 9 10 11 10 12 12 13 13 14 15 15 15 16 16 16 18 17 18 19 16 14 14 14 14 14 14 14 14 15 15 15 16 16 16 16 16
5 5 5 5 5 5 6 6 7 7 7 7 8 8 10 9 9 9 10 10 12 13 12 11 13 14 14 16 16 17 17 17 18 17 17 18 13 13 12 12 12 12 12 12 12 13 12 12 13 13 13 14 15 15
5 5 5 5 5 5 6 6 7 7 7 8 9 11 9 9 9 11 11 11 11 12 10 10 11 14 12 13 16 15 17 18 17 17 17 16 14 13 12 12 11 11 11 11 11 11 11 11 11 11 11 11 12 12
6 5 5 5 5 6 6 7 7 7 7 8 8 8 9 10 10 12 12 11 10 10 10 10 11 11 12 12 15 15 16 17 16 16 17 14 12 10 10 10 10 11 11 11 10 10 10 10 10 10 10 10 11 11
6 6 5 6 6 6 7 7 8 8 8 7 9 10 11 11 10 11 10 10 10 10 11 11 12 12 12 13 15 16 16 16 16 15 13 13 11 10 10 11 11 12 12 12 11 11 11 11 11 10 9 8 8 9
7 6 6 7 7 7 7 7 8 8 8 10 10 8 10 10 9 8 9 9 10 10 10 11 12 12 12 14 15 16 16 16 13 13 11 13 11 11 11 11 12 12 12 12 11 11 11 10 10 9 9 7 7 7
9 8 8 8 8 8 8 8 8 7 9 9 10 7 6 5 5 5 7 8 8 9 10 11 12 12 13 13 14 15 15 13 13 13 13 13 11 11 11 11 12 12 11 11 11 11 10 10 9 8 7 6 7 7
10 10 9 9 10 9 9 8 7 7 7 6 5 7 6 6 6 5 5 7 7 9 11 11 12 13 12 13 11 11 11 9 9 10 11 11 11 10 11 11 11 11 10 10 11 10 10 10 8 6 6 6 6 7
9 9 10 10 10 11 11 9 8 7 7 6 6 5 5 5 5 5 5 5 6 9 10 10 11 10 12 10 9 8 9 10 10 10 11 10 10 10 10 10 10 10 10 10 10 10 9 9 7 6 6 6 6 7
8 10 11 12 12 10 10 9 8 8 6 6 6 5 5 5 6 6 6 6 6 7 7 7 7 9 9 9 11 12 11 11 11 11 12 12 11 11 10 10 10 11 10 11 10 10 9 8 7 6 6 6 6 6
11 11 12 12 12 11 10 10 9 8 8 7 8 8 7 7 7 7 7 6 7 7 7 8 10 11 12 11 11 12 11 11 12 12 12 12 11 11 11 11 12 12 12 12 10 10 9 9 7 6 5 5 5 6
12 12 12 13 13 11 12 11 10 11 13 11 10 11 11 11 10 10 11 10 11 11 12 12 11 12 12 11 11 11 12 12 12 12 12 11 12 12 11 12 12 13 12 12 10 9 9 9 8 7 6 5 5 5
13 13 13 13 11 12 12 13 13 12 12 13 13 13 12 13 12 12 12 14 14 14 12 12 12 11 11 11 12 11 11 11 11 11 11 12 12 12 12 12 12 13 12 12 9 9 8 8 8 7 7 6 5 4
13 14 13 12 13 12 13 12 14 13 14 14 14 14 14 15 14 13 13 13 11 11 11 11 11 11 11 11 11 11 11 11 11 12 12 12 12 12 11 12 12 12 12 11 9 8 8 8 7 8 7 7 6 4
14 14 12 13 14 14 14 13 14 15 16 15 15 15 15 15 14 14 13 11 10 10 10 10 11 11 11 11 11 12 12 13 13 12 13 13 12 12 12 12 12 12 12 11 9 8 9 8 8 8 8 7 6 5
13 11 13 15 15 15 15 16 16 16 16 16 17 15 14 15 14 13 13 11 11 13 12 12 12 13 13 13 13 13 12 13 12 12 12 12 12 12 12 12 12 12 11 11 10 9 9 8 8 7 7 7 6 6
12 13 13 13 15 16 17 17 17 17 17 16 16 17 16 15 14 14 13 13 12 13 13 13 12 11 10 12 12 12 12 13 13 12 12 12 12 12 12 12 12 11 11 10 9 9 8 7 8 8 7 7 7 6
10 14 14 17 17 17 18 17 17 17 16 16 16 16 15 16 16 14 14 13 13 13 13 12 11 10 10 11 12 13 13 13 13 13 12 12 12 12 12 12 11 11 10 10 10 10 10 9 9 9 9 8 7 7
13 17 16 14 16 16 17 16 16 16 16 16 16 17 17 16 15 14 13 13 13 12 12 12 12 12 12 12 12 13 13 13 12 13 13 12 12 12 11 11 10 10 10 10 10 9 9 9 9 9 9 9 8 8
15 16 17 16 16 16 16 16 16 16 16 16 17 16 16 15 15 14 14 13 12 13 13 14 14 13 13 12 12 13 12 12 12 12 12 12 12 11 11 11 11 10 10 9 9 9 9 9 9 9 9 9 9 8
15 15 16 16 15 15 14 14 15 15 15 16 17 17 15 14 14 14 13 13 13 13 14 14 14 14 14 13 13 12 11 11 11 11 11 12 12 11 11 11 11 11 11 11 10 10 9 9 9 9 9 9 8 8
15 14 15 15 16 15 13 12 14 15 15 15 15 14 14 14 14 13 13 13 13 13 14 14 14 14 14 13 12 12 11 11 11 10 10 11 11 11 11 11 11 11 11 11 11 10 10 9 9 9 9 8 8 7
14 14 14 15 15 14 12 13 14 14 14 15 15 16 16 15 15 14 13 13 13 13 13 13 13 13 13 13 12 12 12 12 11 10 9 10 11 10 10 11 11 11 11 11 11 10 10 9 9 9 8 8 7 6
15 14 14 15 12 12 12 13 12 13 14 15 16 16 16 15 15 15 13 13 13 13 13 12 13 13 12 12 12 11 10 11 10 10 9 9 9 9 9 10 10 10 10 11 10 10 9 9 8 8 8 8 6 6
14 13 14 13 13 11 13 13 12 13 15 16 16 16 15 15 15 14 13 12 12 12 12 12 12 12 11 11 11 11 11 11 10 9 8 8 8 8 8 9 8 9 9 10 10 10 9 9 8 7 7 6 6 6
Height
1523 1519 1515 1511 1508 1504 1502 1500 1498 1495 1493 1490 1488 1486 1484 1482 1480 1479 1482 1481 1481 1473 1467 1471 1470 1466 1462 1457 1446 1449 1456 1451 1447 1448 1440 1434 1435 1434 1438 1438 1444 1453 1460 1461 1457 1463 1469 1471 1467 1470 1484 1484 1486 1485
1522 1518 1514 1510 1506 1504 1501 1499 1497 1494 1492 1489 1487 1485 1484 1482 1480 1480 1482 1481 1481 1479 1474 1473 1473 1471 1469 1468 1466 1456 1451 1450 1451 1444 1437 1435 1437 1439 1441 1452 1449 1463 1457 1462 1465 1478 1481 1481 1483 1486 1487 1488 1489 1489
1521 1517 1514 1509 1506 1503 1500 1498 1496 1493 1491 1489 1487 1485 1483 1481 1480 1481 1482 1482 1481 1477 1473 1472 1472 1473 1471 1469 1468 1465 1463 1462 1460 1461 1450 1449 1453 1454 1452 1451 1454 1462 1469 1463 1468 1478 1481 1486 1489 1491 1491 1492 1493 1492
1520 1516 1512 1509 1505 1502 1499 1497 1495 1492 1490 1488 1486 1484 1482 1481 1481 1481 1481 1482 1481 1476 1472 1470 1473 1474 1473 1472 1470 1468 1467 1467 1466 1464 1461 1458 1459 1468 1459 1465 1464 1470 1471 1471 1472 1481 1485 1486 1490 1493 1493 1494 1494 1492
1518 1515 1511 1508 1504 1501 1498 1496 1494 1491 1489 1487 1485 1483 1482 1482 1482 1481 1483 1482 1482 1483 1480 1470 1473 1474 1474 1474 1472 1471 1470 1469 1468 1468 1466 1466 1471 1473 1474 1474 1471 1479 1487 1481 1485 1494 1495 1493 1495 1495 1494 1495 1493 1491
1516 1513 1510 1507 1504 1500 1497 1495 1492 1490 1489 1487 1485 1484 1483 1483 1483 1482 1483 1483 1479 1479 1480 1474 1476 1477 1477 1476 1475 1475 1474 1474 1472 1471 1472 1479 1483 1481 1475 1472 1488 1493 1498 1500 1498 1500 1499 1496 1495 1495 1495 1493 1492 1490
1514 1511 1508 1505 1503 1500 1497 1495 1492 1490 1489 1487 1486 1485 1484 1484 1483 1484 1484 1481 1479 1478 1479 1478 1474 1479 1479 1478 1479 1479 1479 1478 1477 1480 1481 1481 1484 1485 1480 1483 1496 1499 1503 1503 1502 1502 1499 1497 1495 1494 1493 1492 1490 1487
1512 1509 1506 1504 1502 1500 1497 1495 1493 1491 1490 1489 1488 1487 1486 1485 1485 1484 1482 1481 1480 1479 1479 1478 1478 1477 1480 1477 1479 1482 1483 1483 1486 1486 1487 1484 1489 1487 1490 1503 1504 1504 1506 1504 1504 1504 1501 1498 1495 1493 1492 1489 1486 1484
1510 1507 1504 1502 1501 1499 1496 1494 1492 1491 1490 1489 1488 1487 1487 1486 1486 1487 1483 1483 1483 1484 1480 1480 1477 1483 1484 1482 1482 1484 1483 1486 1489 1486 1490 1489 1488 1503 1510 1509 1509 1509 1508 1506 1505 1502 1499 1496 1493 1490 1488 1486 1483 1480
1508 1505 1502 1500 1499 1497 1495 1493 1492 1490 1490 1490 1488 1488 1487 1488 1487 1486 1488 1486 1483 1483 1485 1486 1482 1480 1484 1479 1483 1483 1482 1484 1484 1493 1491 1491 1514 1516 1516 1516 1514 1512 1510 1507 1504 1500 1498 1495 1492 1489 1485 1481 1477 1474
1507 1504 1502 1500 1498 1495 1493 1492 1491 1491 1491 1492 1489 1488 1490 1487 1487 1485 1484 1484 1486 1488 1493 1493 1492 1487 1490 1487 1482 1487 1482 1483 1483 1492 1488 1494 1508 1517 1516 1514 1513 1512 1509 1506 1503 1500 1497 1493 1488 1484 1480 1477 1473 1469
1508 1505 1502 1499 1497 1495 1494 1492 1492 1493 1492 1492 1491 1491 1491 1489 1487 1484 1484 1488 1491 1494 1495 1497 1496 1496 1494 1493 1488 1489 1486 1484 1489 1494 1489 1503 1517 1517 1516 1514 1513 1510 1507 1504 1501 1497 1493 1489 1485 1480 1474 1469 1465 1461
1509 1506 1503 1500 1498 1496 1495 1494 1493 1493 1493 1494 1494 1494 1492 1490 1488 1486 1488 1491 1494 1496 1496 1496 1496 1495 1497 1495 1490 1486 1483 1488 1492 1497 1510 1515 1517 1516 1515 1512 1509 1507 1503 1500 1498 1494 1489 1485 1480 1474 1467 1461 1455 1451
1510 1508 1505 1502 1500 1499 1497 1496 1495 1494 1495 1495 1495 1499 1496 1495 1501 1504 1502 1501 1501 1500 1499 1497 1495 1497 1498 1493 1491 1485 1490 1490 1503 1509 1517 1514 1515 1514 1512 1510 1507 1504 1501 1498 1494 1490 1485 1479 1473 1467 1461 1453 1446 1440
1513 1510 1508 1505 1503 1502 1500 1498 1497 1498 1499 1499 1501 1507 1510 1511 1510 1509 1507 1505 1505 1503 1501 1499 1497 1498 1497 1495 1495 1493 1495 1505 1506 1509 1512 1512 1513 1512 1510 1507 1505 1501 1498 1495 1490 1486 1481 1475 1467 1459 1451 1443 1437 1431
1515 1512 1510 1508 1506 1504 1503 1500 1501 1501 1503 1507 1511 1513 1513 1512 1511 1510 1509 1508 1507 1504 1502 1502 1500 1498 1499 1500 1506 1510 1512 1520 1521 1517 1515 1514 1512 1510 1508 1505 1502 1500 1496 1493 1489 1485 1479 1472 1463 1453 1444 1436 1429 1422
1517 1516 1514 1513 1510 1508 1506 1505 1504 1505 1510 1515 1518 1516 1516 1514 1513 1512 1511 1509 1508 1507 1505 1505 1503 1509 1507 1513 1517 1519 1520 1519 1517 1516 1514 1512 1510 1507 1506 1504 1502 1498 1494 1491 1487 1482 1478 1472 1462 1450 1440 1432 1424 1418
1521 1518 1517 1515 1514 1512 1512 1509 1509 1514 1518 1520 1519 1519 1518 1515 1514 1513 1511 1510 1509 1510 1511 1514 1515 1516 1519 1521 1515 1516 1517 1516 1515 1513 1510 1508 1507 1506 1505 1503 1499 1496 1492 1488 1485 1480 1475 1469 1461 1451 1442 1432 1424 1417
1524 1520 1519 1519 1517 1516 1517 1517 1517 1520 1523 1523 1523 1521 1519 1518 1517 1515 1514 1513 1512 1511 1513 1516 1517 1517 1516 1517 1517 1516 1515 1514 1512 1510 1508 1507 1505 1505 1503 1501 1497 1494 1491 1487 1483 1479 1475 1469 1464 1455 1446 1436 1427 1418
1528 1525 1522 1520 1520 1522 1522 1524 1523 1524 1524 1527 1525 1523 1522 1521 1520 1519 1518 1517 1516 1514 1514 1516 1519 1519 1518 1518 1517 1516 1514 1512 1510 1508 1508 1506 1504 1502 1501 1499 1496 1492 1489 1485 1482 1478 1473 1469 1463 1457 1449 1440 1430 1421
1529 1528 1526 1524 1525 1525 1526 1526 1526 1527 1527 1525 1525 1524 1524 1523 1522 1521 1520 1517 1516 1516 1520 1522 1522 1521 1520 1518 1517 1515 1514 1513 1511 1509 1508 1505 1504 1502 1499 1497 1493 1490 1488 1484 1481 1476 1472 1468 1463 1458 1451 1444 1436 1427
1531 1530 1528 1528 1529 1528 1528 1528 1528 1528 1527 1525 1524 1524 1524 1522 1522 1524 1524 1523 1525 1526 1525 1524 1523 1521 1520 1518 1517 1516 1515 1512 1510 1508 1506 1504 1501 1499 1498 1495 1492 1489 1487 1483 1481 1476 1472 1468 1463 1458 1453 1447 1440 1431
1532 1531 1531 1531 1530 1530 1532 1530 1528 1527 1524 1524 1525 1525 1524 1524 1526 1526 1528 1531 1530 1528 1526 1525 1524 1523 1520 1517 1517 1517 1515 1512 1509 1508 1506 1504 1502 1499 1497 1494 1492 1489 1487 1484 1481 1477 1473 1469 1464 1460 1455 1449 1443 1435
1531 1532 1532 1530 1529 1528 1529 1527 1526 1524 1524 1524 1521 1526 1527 1527 1529 1531 1531 1533 1532 1530 1529 1527 1526 1523 1521 1520 1518 1517 1515 1512 1510 1508 1507 1504 1502 1500 1498 1495 1492 1489 1488 1484 1480 1478 1474 1470 1466 1461 1457 1451 1445 1439
1533 1533 1533 1530 1528 1526 1524 1523 1523 1521 1520 1523 1523 1522 1524 1528 1527 1531 1534 1533 1533 1530 1530 1528 1528 1527 1526 1523 1521 1519 1517 1513 1511 1509 1508 1505 1503 1500 1497 1495 1493 1491 1489 1486 1483 1479 1476 1473 1468 1464 1459 1454 1449 1443
1531 1529 1529 1525 1524 1523 1522 1521 1520 1521 1523 1524 1523 1525 1527 1525 1525 1531 1533 1535 1534 1533 1532 1530 1529 1528 1527 1524 1521 1518 1516 1514 1511 1509 1508 1506 1504 1502 1499 1496 1495 1492 1490 1487 1484 1480 1476 1473 1468 1464 1460 1456 1452 1446
1528 1524 1526 1527 1526 1526 1524 1524 1524 1523 1522 1523 1523 1523 1522 1525 1527 1534 1535 1535 1535 1534 1532 1529 1527 1526 1525 1524 1522 1519 1517 1515 1514 1511 1509 1507 1505 1503 1501 1498 1497 1495 1491 1489 1485 1482 1478 1474 1470 1465 1461 1457 1453 1449
1524 1524 1523 1526 1525 1526 1526 1525 1524 1523 1523 1526 1523 1524 1526 1528 1531 1534 1534 1535 1535 1532 1530 1528 1526 1525 1523 1524 1523 1520 1519 1517 1515 1513 1510 1508 1506 1504 1502 1499 1497 1493 1490 1489 1487 1484 1480 1476 1472 1467 1463 1459 1455 1452
1524 1523 1524 1524 1526 1526 1527 1528 1527 1527 1528 1524 1524 1525 1529 1533 1535 1534 1535 1534 1532 1532 1529 1528 1525 1523 1522 1522 1521 1520 1520 1519 1517 1514 1512 1509 1506 1505 1502 1499 1497 1495 1492 1489 1485 1482 1480 1477 1474 1470 1466 1462 1459 1455
1523 1524 1524 1524 1524 1524 1529 1529 1528 1528 1528 1528 1529 1530 1531 1532 1534 1534 1533 1533 1532 1531 1529 1528 1525 1523 1522 1521 1521 1520 1519 1518 1517 1516 1514 1510 1507 1506 1503 1500 1497 1494 1492 1489 1486 1483 1480 1477 1474 1471 1467 1464 1461 1458
1522 1523 1523 1524 1524 1527 1528 1529 1529 1529 1528 1529 1529 1528 1527 1530 1530 1532 1533 1532 1531 1530 1529 1528 1526 1524 1524 1522 1521 1521 1519 1518 1517 1516 1514 1512 1509 1506 1503 1500 1497 1494 1491 1488 1485 1483 1480 1478 1475 1472 1468 1465 1462 1460
1519 1521 1522 1523 1527 1528 1529 1529 1530 1529 1528 1527 1526 1527 1527 1528 1528 1529 1531 1531 1530 1529 1528 1528 1526 1525 1525 1524 1523 1521 1520 1519 1517 1516 1514 1511 1509 1506 1504 1501 1497 1494 1491 1488 1485 1483 1480 1478 1476 1473 1470 1467 1464 1462
1519 1520 1521 1524 1525 1528 1528 1529 1530 1528 1525 1523 1523 1523 1526 1527 1527 1528 1530 1530 1530 1529 1528 1527 1526 1525 1525 1524 1523 1521 1519 1517 1515 1512 1510 1508 1505 1503 1502 1500 1498 1495 1491 1488 1485 1482 1480 1477 1475 1472 1470 1468 1465 1462
Wind_Speed
17 18 18 16 17 15 9 9 12 12 11 11 8 7 11 11 7 1 2 4 2 11 3 2 4 7 6 11 6 11 5 9 11 12 12 10 10 7 9 3 7 11 12 11 13 15 13 14 4 5 5 8 11 13
17 17 18 18 16 12 9 9 11 12 12 9 8 8 10 10 4 3 2 4 4 8 7 2 2 2 3 6 10 2 4 5 9 6 5 4 5 1 6 7 5 3 8 6 7 5 9 16 17 12 11 11 12 13
16 17 18 16 15 11 10 11 12 10 9 9 9 10 10 5 2 5 1 4 4 8 9 10 9 3 3 3 2 7 1 3 3 5 8 5 1 6 6 3 4 4 8 4 1 9 9 11 13 12 10 11 13 14
16 16 17 16 13 10 11 9 10 10 10 9 8 10 6 2 5 6 3 3 4 8 2 10 5 4 5 5 4 4 4 2 2 2 2 1 1 2 4 5 4 9 5 7 2 12 5 5 10 13 10 11 15 15
15 15 15 15 14 12 11 11 11 11 9 9 7 5 3 4 4 6 1 1 1 3 2 11 12 8 7 8 9 7 4 2 1 4 4 2 4 3 2 1 4 13 10 5 6 10 8 9 11 11 12 16 17 18
16 14 14 12 14 13 12 11 10 7 8 8 5 4 5 3 2 1 1 1 2 4 4 2 6 8 8 10 11 12 7 5 2 2 5 3 4 5 1 2 9 11 10 9 8 10 13 13 11 13 16 18 20 21
15 15 13 12 12 12 13 11 9 6 8 5 5 6 7 6 5 2 2 4 5 4 2 1 4 5 5 6 9 11 10 8 7 6 2 3 5 4 2 8 11 10 10 10 8 14 16 14 18 19 19 20 20 21
16 14 13 10 10 12 13 11 8 5 4 5 6 5 8 8 6 4 3 2 3 3 1 1 3 6 5 3 7 4 7 7 7 5 5 4 7 1 5 12 10 10 10 10 12 14 17 19 20 20 21 22 22 23
17 15 12 9 8 10 11 10 7 3 0 2 5 3 5 4 2 5 11 14 7 3 8 3 3 3 1 4 6 6 3 5 1 5 4 4 3 6 15 18 15 14 15 18 19 20 22 23 25 25 25 25 26 26
18 15 12 9 8 11 11 9 6 3 2 3 1 2 3 2 3 5 4 3 4 4 8 8 8 6 4 6 3 6 4 3 4 4 2 9 6 11 14 13 12 14 16 18 22 24 25 26 27 29 31 32 31 31
15 13 13 11 10 10 7 5 6 4 7 4 3 4 3 3 1 3 1 3 5 4 5 7 9 4 4 4 5 5 3 1 5 4 3 4 4 12 13 11 12 14 16 18 18 20 22 25 27 29 31 30 31 33
13 13 14 13 10 8 6 5 5 6 2 3 3 3 4 3 2 2 3 5 3 2 3 2 5 3 3 3 2 0 2 3 5 2 3 3 4 10 11 13 14 15 16 17 18 21 22 23 25 28 30 32 32 33
14 15 15 14 11 8 7 6 6 5 5 4 3 3 4 4 5 4 5 4 3 3 4 4 4 2 2 2 2 3 2 5 4 4 3 2 2 8 12 13 14 15 16 18 20 21 23 25 27 28 31 34 32 32
14 15 14 12 12 10 9 6 5 7 6 3 2 4 4 5 6 5 5 4 6 5 5 3 3 3 1 1 4 2 4 1 4 3 1 1 4 13 14 13 14 17 18 20 21 24 26 29 31 31 31 33 34 33
12 15 14 14 12 10 10 11 11 8 4 6 6 4 5 4 3 5 7 5 7 3 5 3 3 3 1 1 3 4 3 4 3 3 2 8 15 15 14 15 16 18 19 20 24 27 29 32 35 36 35 34 31 31
12 16 16 14 13 13 11 11 9 5 5 6 7 2 6 2 5 6 7 5 7 5 3 1 2 2 4 3 5 5 3 3 1 4 11 15 14 14 14 16 17 18 18 19 21 25 28 34 37 37 35 33 30 27
12 7 6 16 21 17 19 10 5 7 6 4 4 7 6 3 3 5 7 7 6 3 3 4 4 8 5 4 4 3 0 2 8 10 12 12 13 13 14 15 16 18 17 18 20 22 26 34 35 40 40 40 33 32
9 9 9 11 11 16 21 16 6 7 6 7 3 7 5 6 5 6 6 7 5 3 2 3 1 4 3 1 1 1 3 6 8 8 10 11 10 10 11 12 14 17 20 20 22 20 22 29 37 39 40 40 38 35
13 11 12 10 11 8 5 10 7 5 6 4 5 8 7 7 11 9 8 6 7 7 5 3 3 2 3 1 3 4 4 5 8 10 9 9 8 7 7 12 15 15 20 20 22 20 22 23 28 38 39 41 40 38
13 14 15 15 8 5 4 5 5 3 5 5 5 8 8 8 6 7 9 6 5 3 5 3 4 5 6 5 4 5 6 8 11 12 11 11 9 10 10 13 16 15 20 20 20 21 21 24 29 30 37 40 42 42
13 14 12 13 6 6 4 3 4 3 3 4 6 6 5 9 10 11 11 5 12 11 7 7 7 7 6 6 6 6 7 8 9 10 11 12 11 10 10 12 16 18 20 22 22 23 21 19 24 26 33 38 40 43
7 8 5 6 4 3 3 4 4 2 1 3 4 4 5 7 10 12 11 11 5 6 7 8 10 9 9 8 8 9 10 10 8 5 8 9 11 10 13 18 18 18 20 20 22 21 22 23 24 25 27 31 36 45
5 3 3 3 1 1 2 1 1 2 1 3 3 3 4 6 7 6 5 7 7 11 10 11 12 9 9 8 9 13 12 13 13 15 17 16 15 19 15 17 19 17 20 21 19 20 22 21 22 25 29 29 31 40
1 1 2 1 0 1 2 1 1 1 0 2 3 3 2 4 4 4 4 6 8 11 13 14 14 13 10 11 13 14 15 17 18 17 16 17 19 18 18 16 16 18 19 20 21 22 22 21 24 25 27 29 31 31
1 1 1 2 2 3 2 2 1 0 2 2 1 3 4 2 1 4 6 11 8 11 14 14 13 11 10 10 12 13 14 14 14 11 15 15 16 15 17 17 18 17 19 19 22 21 20 21 23 24 24 28 31 32
1 3 2 1 2 2 0 2 1 1 2 2 2 3 1 2 3 4 5 8 9 12 15 13 11 9 7 8 12 15 16 16 15 12 13 14 16 17 18 19 19 17 18 19 19 21 22 22 22 22 24 25 27 26
3 3 3 2 1 1 2 1 3 1 2 1 2 2 2 2 3 5 6 7 8 10 10 9 7 6 8 12 12 12 13 14 15 13 12 14 15 15 16 17 17 16 14 19 19 19 21 23 22 23 23 22 23 27
2 3 4 5 3 2 1 2 1 1 2 1 2 2 2 3 4 4 4 5 7 8 11 9 7 4 7 6 7 10 13 14 12 13 12 13 14 14 15 15 15 15 8 13 17 20 18 21 22 22 22 23 23 24
3 4 4 4 3 2 1 1 1 2 1 1 2 3 3 3 2 3 4 5 6 8 10 11 10 8 8 5 7 8 12 12 13 14 13 14 17 17 15 15 15 15 14 14 13 19 18 14 19 21 22 22 22 24
3 4 3 3 3 1 2 2 4 4 3 5 6 5 5 4 1 2 4 5 6 7 9 9 9 9 9 9 6 9 8 9 11 11 12 15 16 15 15 14 14 14 14 14 15 17 19 18 19 20 21 22 21 21
3 4 4 3 2 3 5 4 4 3 4 2 1 3 5 3 2 0 3 5 6 6 7 9 8 7 9 11 11 11 10 11 11 10 11 11 13 12 13 15 15 15 15 15 16 16 17 18 19 19 20 21 20 18
6 5 6 3 3 4 4 4 1 1 4 6 7 3 3 3 2 1 2 5 6 6 6 7 6 6 7 7 8 8 9 9 10 12 13 12 11 11 11 14 13 15 16 16 16 15 15 17 16 17 18 19 19 19
4 6 6 6 5 3 6 5 4 5 11 5 3 1 3 3 3 3 3 3 4 5 6 5 4 4 5 7 7 9 11 11 13 11 19 19 14 11 10 12 13 14 15 16 15 16 16 16 16 15 15 16 19 20
Wind_Direction
351 352 354 352 347 346 357 2 349 346 349 347 349 339 346 344 341 190 249 275 291 275 43 299 320 336 311 263 276 111 201 230 198 231 226 221 234 185 227 48 229 204 217 229 244 253 241 352 61 359 51 51 19 10
357 358 358 355 353 355 355 355 350 338 347 355 354 343 340 345 360 153 263 272 280 255 344 276 283 332 307 340 332 284 339 350 26 242 238 307 191 84 261 217 180 262 12 360 18 53 87 59 75 62 39 46 20 11
357 358 356 356 358 358 0 348 345 349 354 353 342 338 334 347 89 160 315 289 259 252 220 195 148 74 23 338 305 307 160 8 42 356 346 43 49 342 205 280 95 120 8 286 260 119 96 84 62 40 32 22 7 1
353 353 355 357 358 354 356 350 348 343 334 331 329 337 348 37 121 106 69 292 234 286 302 131 127 93 75 58 55 58 73 74 39 331 262 256 228 314 335 42 322 51 309 9 249 68 315 142 44 9 355 354 348 346
347 349 353 355 355 353 346 342 337 336 341 339 335 353 42 115 130 107 54 30 3 320 316 131 115 95 78 62 61 65 91 90 166 190 220 212 67 297 116 330 51 23 24 350 34 32 349 359 338 338 345 335 331 329
350 348 349 350 357 358 355 354 354 348 347 359 23 55 107 127 39 320 227 176 16 86 278 76 110 82 76 66 64 62 66 89 118 147 66 77 53 293 287 105 62 67 29 7 348 342 324 308 324 323 322 322 320 318
345 345 346 347 353 359 1 3 6 1 0 35 61 77 69 94 12 272 300 254 162 133 357 214 138 103 64 81 69 67 72 69 90 113 61 66 113 281 358 46 28 23 7 337 324 335 324 322 316 314 311 311 309 306
344 338 340 345 357 2 2 1 2 358 21 76 57 53 70 89 63 62 17 100 105 156 99 128 164 133 9 111 99 69 94 98 36 89 160 86 139 98 58 23 7 14 352 346 336 322 313 312 309 307 307 307 305 304
344 342 336 331 343 353 353 354 352 344 168 2 15 73 79 27 82 100 82 69 72 36 350 35 100 101 120 92 116 108 127 74 244 107 109 255 137 52 31 19 11 359 347 340 330 320 316 312 309 305 302 300 298 297
350 351 349 339 329 338 341 344 352 336 281 346 34 249 97 94 112 92 91 219 188 56 31 20 353 100 316 159 86 122 35 129 143 75 240 87 74 59 15 352 342 337 330 327 321 319 316 311 309 305 302 299 297 293
4 13 12 5 345 337 354 2 16 69 50 33 315 71 20 25 3 234 228 60 24 80 37 2 42 33 50 345 101 350 71 239 145 116 264 116 101 13 359 358 357 343 334 329 324 317 313 308 306 305 302 297 294 290
17 11 8 10 15 20 25 40 62 64 87 103 95 33 357 329 293 267 89 105 92 84 100 59 75 65 66 341 302 289 109 221 86 176 359 80 34 3 345 336 342 340 337 334 330 322 318 315 312 307 303 300 297 291
20 17 17 23 31 31 49 64 74 81 96 30 21 21 9 4 18 40 25 39 63 43 54 40 107 53 125 270 64 233 183 76 136 38 53 109 18 321 329 335 338 342 341 341 336 330 328 321 315 310 307 307 302 295
25 26 27 35 43 45 46 45 69 77 60 14 56 26 352 28 36 18 14 39 28 26 359 10 118 72 53 319 315 72 72 48 74 91 74 34 352 339 341 347 349 349 350 344 339 336 337 335 330 326 320 311 311 307
30 36 38 42 45 47 54 62 67 55 51 33 29 44 37 348 0 346 353 16 17 358 338 35 47 107 84 90 16 41 78 72 57 97 52 4 342 335 335 345 348 342 342 348 351 345 338 338 337 332 333 331 323 312
54 51 44 49 48 42 41 53 39 48 58 53 43 38 0 307 23 14 12 13 10 334 358 324 283 54 55 23 44 35 50 64 296 289 306 313 317 322 331 335 334 338 340 345 349 351 351 348 345 342 345 343 340 332
43 11 46 57 58 59 51 29 18 49 64 53 19 17 16 347 343 359 10 6 20 358 38 2 34 35 19 47 38 20 39 267 302 296 295 293 301 314 324 324 331 337 341 348 350 356 355 353 351 356 355 354 352 349
18 33 65 82 61 54 41 30 56 57 63 37 34 23 47 59 45 38 40 41 56 60 49 64 73 37 70 80 100 107 303 301 291 297 306 310 314 331 335 331 337 351 347 349 352 353 357 0 1 1 1 360 358 356
45 64 76 68 44 57 45 27 35 77 66 72 53 54 54 51 39 40 40 51 64 77 101 93 87 61 82 115 15 17 357 331 329 330 335 343 339 338 337 341 348 357 357 352 356 359 357 1 5 11 13 8 5 2
40 52 61 63 64 37 50 43 31 65 67 66 85 77 76 68 62 58 70 65 65 68 69 53 43 40 33 13 355 327 346 340 338 342 343 349 348 348 354 358 351 352 358 352 2 359 3 9 10 8 12 15 10 7
19 15 50 54 38 50 66 56 62 51 52 84 94 67 64 84 78 67 43 40 62 66 77 62 43 20 21 5 353 352 347 342 327 327 331 338 347 345 345 5 342 359 358 356 3 1 5 8 7 13 15 17 19 18
337 2 28 23 39 40 57 28 56 79 51 64 51 64 63 52 56 48 44 40 40 31 29 10 354 348 352 360 34 17 358 353 351 350 350 1 343 3 17 356 4 1 1 7 4 4 8 11 6 10 10 15 19 24
329 335 348 357 40 69 106 82 275 15 268 39 109 64 53 57 35 31 66 30 28 25 26 23 21 24 9 4 56 30 13 3 28 19 9 3 14 15 6 5 356 7 3 0 5 5 5 8 14 18 18 17 17 22
347 48 293 295 74 117 165 131 181 258 83 306 95 119 57 33 50 54 56 31 17 41 32 22 17 16 33 27 32 29 12 14 21 18 10 6 10 10 4 0 8 6 1 358 6 6 7 8 14 14 18 17 18 20
316 88 254 248 215 212 207 164 260 266 62 95 29 67 56 31 297 65 33 36 33 17 18 16 16 15 23 23 25 22 16 11 6 21 8 10 3 5 9 10 8 8 8 10 7 11 10 12 14 16 15 18 17 18
278 166 223 234 172 253 202 280 345 19 53 358 58 102 140 297 50 78 38 22 12 5 360 355 353 5 18 12 13 12 15 13 9 29 18 16 13 9 8 10 9 9 12 10 7 8 9 6 7 9 15 18 14 19
243 173 176 212 261 172 230 12 332 336 42 81 117 316 103 57 61 93 57 21 8 357 349 356 9 8 26 17 12 13 14 16 14 8 12 10 10 12 11 14 14 5 11 14 13 12 12 11 9 11 11 17 16 16
299 227 222 180 195 228 275 263 298 6 71 41 200 46 43 36 47 22 12 356 346 352 1 359 2 4 357 36 8 13 15 6 9 7 7 15 17 15 12 13 13 8 16 24 21 17 12 15 14 13 15 15 17 19
229 201 195 179 194 149 75 48 210 89 146 218 136 81 113 93 83 8 346 336 339 351 355 356 354 1 19 33 16 21 357 2 1 6 8 5 12 8 4 5 7 9 6 3 9 18 15 4 15 13 11 12 13 13
207 182 217 186 232 132 131 105 133 135 91 70 100 135 159 157 143 3 1 357 353 350 355 353 351 4 359 7 20 12 11 9 5 360 356 347 0 359 0 359 357 355 357 356 355 358 5 4 6 5 7 8 6 5
202 184 183 176 100 109 146 147 155 198 216 186 320 311 77 19 227 216 353 350 340 341 351 353 355 8 1 6 7 1 358 5 4 1 350 341 344 345 350 354 355 354 349 343 345 350 357 359 355 358 5 7 17 21
192 204 175 148 149 169 160 172 169 255 241 200 222 196 245 254 259 203 295 341 339 343 355 353 352 2 358 359 6 4 360 349 353 349 346 341 335 333 337 344 341 347 351 348 352 354 354 357 353 355 357 3 13 9
194 175 158 128 141 172 179 189 205 260 236 225 241 255 310 313 330 10 335 339 334 331 332 335 341 348 354 359 356 352 353 347 343 349 351 347 338 331 338 335 342 346 345 347 345 350 353 354 357 5 4 1 358 356